Regional Weather Roundup
Issued by NWS Bismarck, ND

Home | Current Version | Previous Version | Text Only | Print | Product List | Glossary On
Versions: 1 2 3 4 5 6 7 8 9 10 11 12 13 14 15 16 17 18 19 20 21 22 23 24 25 26 27 28 29 30 31 32 33 34 35 36 37 38 39 40 41 42 43 44 45 46 47 48 49 50
000
ASUS43 KBIS 272310
RWRBIS

NWR BROADCAST TEXT
NATIONAL WEATHER SERVICE BISMARCK ND
600 PM CDT SAT AUG 27 2016

NOTE: "FAIR" INDICATES FEW OR NO CLOUDS BELOW 12,000 FEET WITH NO
SIGNIFICANT WEATHER AND/OR OBSTRUCTIONS TO VISIBILITY.


CITY           SKY/WX    TMP DP  RH WIND       PRES   REMARKS
WILLISTON      SUNNY     83  43  24 SE9       29.80F
MINOT          SUNNY     80  44  27 SE6       29.84S
MINOT AFB      SUNNY     78  43  28 S5        29.83S
BISMARCK       SUNNY     79  51  37 VRB3      29.87F
DICKINSON      SUNNY     78  37  22 SW13      29.85S
GARRISON         N/A     78  49  35 SW3       29.86S
HETTINGER ARPT MOSUNNY   81  45  28 S9        29.89F
JAMESTOWN      MOSUNNY   76  61  59 SE5       29.88S
CARRINGTON     FAIR      77  52  41 SW7       29.91S
HAZEN          FAIR      81  43  26 SW7       29.87S
LINTON         FAIR      79  57  47 S8        29.91S
MANDAN         FAIR      77  46  33 SW7       29.89R
OAKES            N/A    N/A N/A N/A MISG        N/A
RUGBY          FAIR      75  46  35 CALM      29.87S
STANLEY        FAIR      75  46  35 S7        29.87F
WATFORD CITY   FAIR      81  45  28 S7G16     29.82F
$$

CITY           SKY/WX    TMP DP  RH WIND       PRES   REMARKS
GRAND FORKS    PTSUNNY   68  61  78 S9        29.90R
GRAND FORKS AF PTSUNNY   67  59  74 S13       29.91R
DEVILS LAKE    NOT AVBL
FARGO          MOSUNNY   73  59  61 SE14G22   29.90S
CAVALIER       FAIR      68  59  73 SE7       29.89F
GRAFTON        FAIR      63  61  94 SE7G14    29.90F
GWINNER        FAIR      75  61  60 SW10      29.92S
LANGDON        FAIR      75  50  41 SW9       29.90S
ROLLA          FAIR      72  48  43 NW7       29.90S
$$

CITY           SKY/WX    TMP DP  RH WIND       PRES   REMARKS
ABERDEEN       SUNNY     78  61  55 S10       29.91S
MOBRIDGE       MOSUNNY   81  50  33 SE10      29.87S
BUFFALO          N/A     80  49  33 SE13      29.82S
RAPID CITY     CLOUDY    83  45  26 SW13G21   29.88S
GLASGOW        SUNNY     84  38  19 SW7       29.71F
SIDNEY         MOSUNNY   83  47  28 SE10      29.77F
WOLF POINT     MOSUNNY   86  41  20 SW8       29.73F
GLENDIVE       SUNNY     85  40  20 S10       29.79F
MILES CITY     SUNNY     86  32  14 W16G23    29.79S
BAKER          SUNNY     82  38  20 S9        29.85S
$$

CITY           SKY/WX    TMP DP  RH WIND       PRES   REMARKS
BILLINGS       PTSUNNY   83  35  18 SW12      29.82F
GREAT FALLS    CLOUDY    79  34  19 SW24G30   29.76R
REGINA         MOSUNNY   79  43  27 S10G17    29.74F
ESTEVAN        CLOUDY    79  45  29 S5        29.81S
$$





USA.gov is the U.S. government's official web portal to all federal, state and local government web resources and services.